Regional Weather Roundup
Issued by NWS

Home | Current Version | Previous Version | Graphics & Text | Print | Product List | Glossary On
Versions: 1 2 3 4 5 6 7 8 9 10 11 12 13 14 15 16 17 18 19 20 21 22 23 24 25 26 27 28 29 30 31 32 33 34 35 36 37 38 39 40 41 42 43 44 45 46 47 48 49 50
000
ASUS43 KMPX 291401
RWRMN
WEATHER ROUNDUP FOR MINNESOTA
NATIONAL WEATHER SERVICE TWIN CITIES/CHANHASSEN MN
900 AM CDT MON AUG 29 2016


NOTE: "FAIR" INDICATES FEW OR NO CLOUDS BELOW 12,000 FEET WITH NO
SIGNIFICANT WEATHER AND/OR OBSTRUCTIONS TO VISIBILITY. N/A MEANS
CURRENT SKY AND/OR WEATHER CONDITIONS ARE NOT AVAILABLE.

MNZ060>063-068>070-291500-
   Twin Cities Metro

CITY           SKY/WX    TMP DP  RH WIND       PRES   REMARKS
TWIN CITIES    PTSUNNY   76  69  79 NE6       30.24R
ST PAUL        SUNNY     73  69  87 NE8       30.24R
CRYSTAL        PTSUNNY   73  68  84 VRB7      30.23R
BLAINE         PTSUNNY   73  73 100 E8        30.23S
LAKEVILLE      CLOUDY    72  72 100 N3        30.24R
EDEN PRAIRIE   MOSUNNY   76  67  73 NE5       30.22R
LAKEVILLE      CLOUDY    72  72 100 N3        30.24R
SOUTH ST PAUL  SUNNY     74  70  86 NE5       30.24R
LAKE ELMO      FAIR      72  70  94 NE6       30.26R
$$
MNZ001>005-007-008-013>017-022>024-027-028-291500-
   Northwest Minnesota

CITY           SKY/WX    TMP DP  RH WIND       PRES   REMARKS
BEMIDJI        CLOUDY    65  63  92 S6        30.12S
HALLOCK        CLOUDY    66  64  94 NW8G16    30.12R
ROSEAU         SUNNY     70  63  78 SW7       30.10R
WARROAD        MOSUNNY   68  64  88 SW5       30.10R
THIEF RVR FALL LGT RAIN  68  64  87 S8        30.12S
CROOKSTON      PTSUNNY   70  66  88 CALM      30.12R
FOSSTON        CLOUDY    66  63  88 NW6       30.14R
DETROIT LAKES  MOSUNNY   68  63  83 S17       30.13F
MOORHEAD       SUNNY     72  66  83 SE9       30.10R
PARK RAPIDS    CLOUDY    65  62  90 S9        30.15R
MAHNOMEN       FAIR      69  63  81 S10G18    30.09S
$$
MNZ006-009>011-018-025>026-291500-
   North Central Minnesota

CITY           SKY/WX    TMP DP  RH WIND       PRES   REMARKS
BAUDETTE       CLOUDY    64  63  96 S13G21    30.08F
FLAG ISLAND    CLOUDY    66  64  94 CALM      30.08R FOG
INTL FALLS     CLOUDY    64  62  93 VRB5      30.11F
WASKISH          N/A     64  63  94 CALM      30.13F
BIG FORK       CLOUDY    64  63  94 SW3       30.15R
LONGVILLE      CLOUDY    63  63 100 CALM      30.15R
GRAND RAPIDS   CLOUDY    62  61  96 CALM      30.18R
CRANE LAKE     CLOUDY    63  61  94 S2        30.14R
ORR            PTSUNNY   63  61  94 CALM      30.11F
COOK           CLOUDY    63  63 100 CALM      30.15S
WALKER         FAIR      64  62  93 S5        30.13F
$$
MNZ012-019>021-037-291500-
   Northeast Minnesota

CITY           SKY/WX    TMP DP  RH WIND       PRES   REMARKS
DULUTH         CLOUDY    65  63  93 NW3       30.14F
ELY            CLOUDY    63  61  94 SW8       30.12F
HIBBING        CLOUDY    61  61 100 CALM      30.15R
EVELETH        CLOUDY    63  62  96 CALM      30.16R
DULUTH HARBOR  CLOUDY    64  63  94 N3        30.12F
TWO HARBORS    CLOUDY    66  63  88 W3        30.12S
SILVER BAY     CLOUDY    66  64  94 SW3       30.12R
G MARAIS ARPRT CLOUDY    64  61  88 CALM      30.18R
$$
MNZ029>031-032-039>041-046>048-054>057-064-291500-
   West Central Minnesota

CITY           SKY/WX    TMP DP  RH WIND       PRES   REMARKS
FERGUS FALLS   MOSUNNY   72  64  78 SE13      30.13R
WHEATON        SUNNY     75  68  78 SE14G20   30.15R
MORRIS         CLOUDY    70  64  83 SE10      30.14R
ALEXANDRIA     CLOUDY    66  64  93 E6        30.16F
ELBOW LAKE     FAIR      70  66  88 SE6       30.14R
WADENA         CLOUDY    64  63  94 SE6       30.15R
GLENWOOD       TSTM      66  63  88 S15G23    30.14F
APPLETON       CLOUDY    73  66  78 E18G25    30.15F
BENSON         CLOUDY    73  61  64 SE15G22   30.16F
ORTONVILLE     MOSUNNY   72  66  83 SE13G22   30.14R
MADISON        CLOUDY    72  68  88 E14G20    30.17R
WILLMAR        CLOUDY    72  68  88 E15       30.22R
$$
MNZ033>034-036-042>043-049>051-058-059-291500-
   Central Minnesota

CITY           SKY/WX    TMP DP  RH WIND       PRES   REMARKS
ST CLOUD       CLOUDY    67  65  93 E9G20     30.22F
SAUK CENTRE    PTSUNNY   63  61  94 N7        30.19S
PAYNESVILLE    CLOUDY    73  62  69 E17G25    30.21F
AITKIN         CLOUDY    68  61  77 S6        30.13S
PINE RIVER     CLOUDY    63  63 100 S3        30.19R
BRAINERD       CLOUDY    65  63  93 CALM      30.15S
STAPLES        CLOUDY    63  63 100 SE5       30.15F
LONG PRAIRIE   FAIR      61  61 100 SE10      30.19R
LITTLE FALLS   LGT RAIN  64  61  88 SE16G23   30.11F
LITCHFIELD     CLOUDY    72  70  94 E15G21    30.24R
BUFFALO        CLOUDY    69  66  92 N9G17     30.25R
MAPLE LAKE     CLOUDY    69  67  94 NE12      30.26R
HUTCHINSON     CLOUDY    70  68  93 E5        30.24R
$$
MNZ037-044-045-052-053-291500-
   East Central Minnesota

CITY           SKY/WX    TMP DP  RH WIND       PRES   REMARKS
PRINCETON      MOSUNNY   70  64  83 SE3       30.25F
MORA           CLOUDY    63  61  94 SE7       30.22F
CAMBRIDGE      PTSUNNY   72  64  78 E3        30.22F
RUSH CITY      RAIN      67  64  90 CALM      30.26R
MOOSE LAKE     CLOUDY    66  59  77 SW12G22   30.11R
HINCKLEY       RAIN      64  64 100 SE8       30.20F
CLOQUET        CLOUDY    63  61  94 N9        30.14R
MCGREGOR       CLOUDY    64  61  88 SW3       30.14S
$$
MNZ071>073-080-081-089-090-097-098-291500-
   Southwest Minnesota

CITY           SKY/WX    TMP DP  RH WIND       PRES   REMARKS
MONTEVIDEO     CLOUDY    72  68  88 SE13      30.21R
GRANITE FALLS  MOSUNNY   72  67  85 NE10      30.22R
CANBY          MOSUNNY   73  68  83 NE14      30.18R
MARSHALL       MOSUNNY   73  67  81 S3        30.17R
REDWOOD FALLS  SUNNY     71  65  81 VRB6      30.20R
OLIVIA         PTSUNNY   70  64  83 E6        30.21R
PIPESTONE      MOSUNNY   70  66  88 S7        30.17R
WINDOM         MOSUNNY   72  64  78 S5        30.20R
WORTHINGTON    MOSUNNY   70  65  84 VRB3      30.20R
JACKSON          N/A     70  64  83 S6        30.21R
TRACY          SUNNY     73  67  81 SW8       30.18R
SLAYTON        MOSUNNY   70  66  88 SW5       30.20R
$$
MNZ065>067-074>077-082>085-091>093-291500-
   South Central Minnesota

CITY           SKY/WX    TMP DP  RH WIND       PRES   REMARKS
MANKATO        CLOUDY    70  64  83 SE7       30.22R
NEW ULM          N/A     70  66  88 SE3       30.20R
ST JAMES       MOSUNNY   64  61  88 SE6       30.21R
FAIRMONT       PTSUNNY   70  66  87 S5        30.22R
GLENCOE        PTSUNNY   72  70  91 E5        30.22R
FARIBAULT      CLOUDY    73  70  88 SE3       30.23R
OWATONNA       CLOUDY    70  68  94 SE5       30.23S FOG
WASECA         PTSUNNY   70  68  94 SE5       30.23S
ALBERT LEA     FOG       70  68  94 SE6       30.24R VSB 1/4
$$
MNZ078>079-086>088-094>096-291500-
   Southeast Minnesota

CITY           SKY/WX    TMP DP  RH WIND       PRES   REMARKS
ROCHESTER      SUNNY     71  69  93 S7        30.25R
RED WING       MOSUNNY   73  70  88 SE3       30.22R
DODGE CENTER   CLOUDY    70  68  94 S7        30.24R FOG
WINONA         CLOUDY    72  68  88 CALM      30.24R
AUSTIN         MOSUNNY   70  66  88 S5        30.24R
PRESTON        SUNNY     69  66  88 SE3       30.26R
$$
ABBREVIATIONS USED IN REMARKS
   TC - TEMPERATURES IN CELSIUS
  WCI - WIND CHILL INDEX
   HX - HEAT INDEX
  VSB - VISIBILITY
$$




USA.gov is the U.S. government's official web portal to all federal, state and local government web resources and services.